This is the latest recevied weather packets stored in our database for station/object DJ2DS-13. If no packets are shown the sender has not sent any weather packets the latest 1 day(s).
| Time | Temp. | Humidity | Pressure | Rain* | Wind** | Luminosity | Snow |
|---|---|---|---|---|---|---|---|
| 1778024500 | 9.44° C | 88% | 1008.6 hPa | 0 mm | 0.45 m/s, 24° | 0 W/m² | - |
| 1778024199 | 10° C | 88% | 1008.7 hPa | 0 mm | 0.45 m/s, 18° | 0 W/m² | - |
| 1778023900 | 10° C | 88% | 1008.6 hPa | 0 mm | 0.89 m/s, 45° | 0 W/m² | - |
| 1778023599 | 9.44° C | 88% | 1008.7 hPa | 0 mm | 0.89 m/s, 37° | 0 W/m² | - |
| 1778023299 | 9.44° C | 88% | 1008.7 hPa | 0 mm | 0.89 m/s, 21° | 0 W/m² | - |
| 1778022999 | 10° C | 88% | 1008.9 hPa | 0 mm | 0.45 m/s, 21° | 0 W/m² | - |
| 1778022699 | 10° C | 88% | 1008.8 hPa | 0 mm | 0.89 m/s, 73° | 0 W/m² | - |
| 1778022399 | 10° C | 87% | 1008.9 hPa | 0 mm | 0.45 m/s, 11° | 0 W/m² | - |
| 1778022099 | 9.44° C | 87% | 1008.9 hPa | 0 mm | 0.45 m/s, 6° | 0 W/m² | - |
| 1778021799 | 9.44° C | 87% | 1008.8 hPa | 0 mm | 0.89 m/s, 7° | 0 W/m² | - |
| 1778021499 | 9.44° C | 87% | 1008.9 hPa | 0 mm | 0.45 m/s, 1° | 0 W/m² | - |
| 1778021198 | 10° C | 86% | 1009 hPa | 0 mm | 0.45 m/s, 28° | 0 W/m² | - |
| 1778020899 | 9.44° C | 86% | 1009.1 hPa | 0 mm | 0.89 m/s, 16° | 0 W/m² | - |
| 1778020598 | 9.44° C | 86% | 1009.2 hPa | 0 mm | 0.89 m/s, 25° | 0 W/m² | - |
| 1778020299 | 9.44° C | 86% | 1009.2 hPa | 0 mm | 0.89 m/s, 27° | 0 W/m² | - |
| 1778019998 | 9.44° C | 86% | 1009.3 hPa | 0 mm | 0.89 m/s, 41° | 0 W/m² | - |
| 1778019699 | 9.44° C | 85% | 1009.3 hPa | 0 mm | 0.89 m/s, 27° | 0 W/m² | - |
| 1778019399 | 9.44° C | 85% | 1009.3 hPa | 0 mm | 0.89 m/s, 7° | 0 W/m² | - |
| 1778019096 | 9.44° C | 85% | 1009.3 hPa | 0 mm | 0.89 m/s, 14° | 0 W/m² | - |
| 1778018800 | 9.44° C | 85% | 1009.3 hPa | 0 mm | 0.45 m/s, 37° | 0 W/m² | - |
| 1778018497 | 9.44° C | 85% | 1009.3 hPa | 0 mm | 0.89 m/s, 20° | 0 W/m² | - |
| 1778018195 | 9.44° C | 85% | 1009.4 hPa | 0 mm | 0.45 m/s, 25° | 0 W/m² | - |
| 1778017894 | 9.44° C | 84% | 1009.2 hPa | 0 mm | 0.89 m/s, 35° | 0 W/m² | - |
| 1778017593 | 9.44° C | 84% | 1009.3 hPa | 0 mm | 0.89 m/s, 7° | 0 W/m² | - |
| 1778017294 | 9.44° C | 84% | 1009.3 hPa | 0 mm | 0.89 m/s, 17° | 0 W/m² | - |
* Rain latest hour (hover to see other rain measurements)
** Current wind speed in m/s (hover to see current wind gust speed)